| time (UTC) | temp C | wind direction | speed KPH | gust KPH | rain 1hr cm | rain 24hr cm | rain mn cm | humidity % | barometer mb |
| 20260504214538 | 16 | 184 | 1.6 | 4.8 | 0.00 | 0.00 | 0.00 | 74 | 1012.1 |
| 20260504213518 | 17 | 175 | 0.0 | 3.2 | 0.00 | 0.00 | 0.00 | 74 | 1012.1 |
| 20260504212518 | 17 | 238 | 1.6 | 4.8 | 0.00 | 0.00 | 0.00 | 74 | 1012.2 |
| 20260504211538 | 17 | 249 | 0.0 | 3.2 | 0.00 | 0.00 | 0.00 | 75 | 1012.2 |
| 20260504210518 | 17 | 83 | 0.0 | 6.4 | 0.00 | 0.00 | 0.00 | 76 | 1012.4 |
| 20260504205518 | 16 | 256 | 1.6 | 6.4 | 0.00 | 0.00 | 0.00 | 76 | 1012.4 |
| 20260504204518 | 16 | 330 | 1.6 | 6.4 | 0.00 | 0.00 | 0.00 | 76 | 1012.4 |
| 20260504203519 | 17 | 106 | 1.6 | 4.8 | 0.00 | 0.00 | 0.00 | 75 | 1012.4 |
| 20260504202519 | 17 | 325 | 1.6 | 6.4 | 0.00 | 0.00 | 0.00 | 75 | 1012.5 |
| 20260504201516 | 17 | 345 | 1.6 | 4.8 | 0.00 | 0.00 | 0.00 | 76 | 1012.7 |
| 20260504200516 | 17 | 43 | 1.6 | 8.0 | 0.00 | 0.00 | 0.00 | 76 | 1012.8 |
| 20260504195517 | 17 | 266 | 1.6 | 6.4 | 0.00 | 0.00 | 0.00 | 76 | 1012.9 |
| 20260504194516 | 17 | 193 | 1.6 | 4.8 | 0.00 | 0.00 | 0.00 | 75 | 1013.0 |
| 20260504193517 | 17 | 247 | 1.6 | 6.4 | 0.00 | 0.00 | 0.00 | 75 | 1013.1 |
| 20260504192537 | 17 | 203 | 1.6 | 4.8 | 0.00 | 0.00 | 0.00 | 74 | 1013.3 |
| 20260504191517 | 17 | 247 | 1.6 | 6.4 | 0.00 | 0.00 | 0.00 | 74 | 1013.5 |
| 20260504190537 | 17 | 263 | 1.6 | 6.4 | 0.00 | 0.00 | 0.00 | 75 | 1013.6 |
| 20260504185517 | 17 | 256 | 1.6 | 9.7 | 0.00 | 0.00 | 0.00 | 74 | 1013.7 |
| 20260504184517 | 17 | 243 | 1.6 | 8.0 | 0.00 | 0.00 | 0.00 | 73 | 1013.7 |
| 20260504183517 | 17 | 192 | 1.6 | 6.4 | 0.00 | 0.00 | 0.00 | 73 | 1013.7 |
| 20260504182518 | 17 | 248 | 1.6 | 8.0 | 0.00 | 0.00 | 0.00 | 73 | 1013.9 |
| 20260504181538 | 17 | 234 | 1.6 | 6.4 | 0.00 | 0.00 | 0.00 | 72 | 1014.0 |
| 20260504180538 | 17 | 166 | 1.6 | 6.4 | 0.00 | 0.00 | 0.00 | 72 | 1014.1 |
| 20260504175518 | 17 | 63 | 1.6 | 6.4 | 0.00 | 0.00 | 0.00 | 71 | 1014.2 |
| 20260504174515 | 17 | 342 | 3.2 | 9.7 | 0.00 | 0.00 | 0.00 | 72 | 1014.3 |
| 20260504173516 | 18 | 42 | 3.2 | 6.4 | 0.00 | 0.00 | 0.00 | 71 | 1014.4 |
| 20260504172516 | 18 | 48 | 3.2 | 8.0 | 0.00 | 0.00 | 0.00 | 69 | 1014.6 |
| 20260504171556 | 18 | 49 | 1.6 | 8.0 | 0.00 | 0.00 | 0.00 | 69 | 1014.7 |
| 20260504170536 | 18 | 133 | 1.6 | 4.8 | 0.00 | 0.00 | 0.00 | 69 | 1014.8 |
| 20260504150518 | 18 | 7 | 1.6 | 4.8 | 0.00 | 0.00 | 0.00 | 68 | 1015.6 |
| 20260504130517 | 16 | 212 | 1.6 | 4.8 | 0.00 | 0.00 | 0.00 | 68 | 1016.0 |
| 20260504110516 | 12 | 196 | 1.6 | 3.2 | 0.00 | 0.00 | 0.00 | 78 | 1016.9 |
| 20260504100517 | 12 | 201 | 1.6 | 3.2 | 0.00 | 0.00 | 0.00 | 77 | 1016.7 |
| 20260504081516 | 11 | 191 | 1.6 | 6.4 | 0.00 | 0.00 | 0.00 | 75 | 1016.8 |
| 20260504080516 | 11 | 287 | 1.6 | 6.4 | 0.00 | 0.00 | 0.00 | 74 | 1016.8 |
| 20260504050516 | 11 | 336 | 1.6 | 3.2 | 0.00 | 0.00 | 0.00 | 71 | 1016.7 |
| 20260504045516 | 11 | 337 | 1.6 | 3.2 | 0.00 | 0.00 | 0.00 | 71 | 1016.7 |
| 20260504044516 | 11 | 345 | 1.6 | 3.2 | 0.00 | 0.00 | 0.00 | 70 | 1016.7 |
| 20260504043517 | 11 | 349 | 1.6 | 3.2 | 0.00 | 0.00 | 0.00 | 69 | 1016.7 |
| 20260504042516 | 11 | 350 | 1.6 | 3.2 | 0.00 | 0.00 | 0.00 | 67 | 1016.5 |
| 20260504041517 | 11 | 347 | 1.6 | 3.2 | 0.00 | 0.00 | 0.00 | 67 | 1016.4 |
| 20260504040557 | 11 | 342 | 1.6 | 3.2 | 0.00 | 0.00 | 0.00 | 67 | 1016.4 |
| 20260504035517 | 11 | 342 | 1.6 | 3.2 | 0.00 | 0.00 | 0.00 | 69 | 1016.3 |
| 20260504034517 | 11 | 18 | 1.6 | 3.2 | 0.00 | 0.00 | 0.00 | 68 | 1016.3 |
| 20260504033517 | 11 | 343 | 1.6 | 3.2 | 0.00 | 0.00 | 0.00 | 69 | 1016.3 |
| 20260504032518 | 11 | 356 | 1.6 | 3.2 | 0.00 | 0.00 | 0.00 | 69 | 1016.3 |
| 20260504031518 | 11 | 347 | 1.6 | 3.2 | 0.00 | 0.00 | 0.00 | 69 | 1016.1 |
| 20260504030538 | 11 | 349 | 1.6 | 3.2 | 0.00 | 0.00 | 0.00 | 69 | 1016.2 |
| 20260504025518 | 11 | 3 | 1.6 | 3.2 | 0.00 | 0.00 | 0.00 | 69 | 1016.2 |
| 20260504024518 | 11 | 356 | 1.6 | 3.2 | 0.00 | 0.00 | 0.00 | 70 | 1016.2 |
| 20260504023536 | 11 | 353 | 1.6 | 3.2 | 0.00 | 0.00 | 0.00 | 70 | 1016.2 |
| 20260504022536 | 11 | 346 | 1.6 | 3.2 | 0.00 | 0.00 | 0.00 | 71 | 1016.2 |
| 20260504021536 | 11 | 1 | 1.6 | 3.2 | 0.00 | 0.00 | 0.00 | 73 | 1016.2 |
| 20260504020516 | 11 | 340 | 1.6 | 4.8 | 0.00 | 0.00 | 0.00 | 75 | 1016.1 |
| 20260504015516 | 11 | 347 | 1.6 | 3.2 | 0.00 | 0.00 | 0.00 | 73 | 1016.1 |
| 20260504014516 | 12 | 10 | 1.6 | 3.2 | 0.00 | 0.00 | 0.00 | 72 | 1016.0 |
| 20260504013516 | 12 | 22 | 1.6 | 3.2 | 0.00 | 0.00 | 0.00 | 71 | 1015.9 |
| 20260504012517 | 12 | 8 | 1.6 | 3.2 | 0.00 | 0.00 | 0.00 | 71 | 1015.9 |
| 20260504011517 | 12 | 25 | 1.6 | 3.2 | 0.00 | 0.00 | 0.00 | 69 | 1015.8 |
| 20260504010517 | 12 | 18 | 1.6 | 3.2 | 0.00 | 0.00 | 0.00 | 68 | 1015.7 |
| 20260504005537 | 12 | 7 | 1.6 | 3.2 | 0.00 | 0.00 | 0.00 | 67 | 1015.7 |
| 20260504004517 | 12 | 7 | 1.6 | 3.2 | 0.00 | 0.00 | 0.00 | 66 | 1015.5 |
| 20260504003518 | 12 | 14 | 1.6 | 3.2 | 0.00 | 0.00 | 0.00 | 64 | 1015.2 |
| 20260504002518 | 12 | 42 | 1.6 | 3.2 | 0.00 | 0.00 | 0.00 | 62 | 1015.1 |
| 20260504001518 | 13 | 18 | 1.6 | 3.2 | 0.00 | 0.00 | 0.00 | 62 | 1015.0 |
| 20260504000518 | 13 | 54 | 1.6 | 3.2 | 0.00 | 0.00 | 0.00 | 61 | 1015.0 |
| 20260503235518 | 13 | 57 | 1.6 | 3.2 | 0.00 | 0.00 | 0.00 | 61 | 1014.9 |
| 20260503234518 | 13 | 304 | 1.6 | 3.2 | 0.00 | 0.00 | 0.00 | 57 | 1014.9 |
| 20260503233518 | 13 | 271 | 0.0 | 3.2 | 0.00 | 0.00 | 0.00 | 56 | 1014.9 |
| 20260503232519 | 13 | 192 | 1.6 | 3.2 | 0.00 | 0.00 | 0.00 | 58 | 1014.8 |
| 20260503231519 | 13 | 216 | 0.0 | 3.2 | 0.00 | 0.00 | 0.00 | 55 | 1014.7 |
| 20260503230518 | 14 | 300 | 1.6 | 3.2 | 0.00 | 0.00 | 0.00 | 54 | 1014.7 |
| 20260503225516 | 14 | 230 | 0.0 | 3.2 | 0.00 | 0.00 | 0.00 | 53 | 1014.7 |
| 20260503224536 | 14 | 242 | 0.0 | 3.2 | 0.00 | 0.00 | 0.00 | 49 | 1014.7 |
| 20260503223516 | 14 | 257 | 0.0 | 3.2 | 0.00 | 0.00 | 0.00 | 48 | 1014.6 |
| 20260503222536 | 15 | 66 | 0.0 | 1.6 | 0.00 | 0.00 | 0.00 | 48 | 1014.6 |
| 20260503221516 | 15 | 275 | 1.6 | 4.8 | 0.00 | 0.00 | 0.00 | 48 | 1014.6 |
| 20260503220516 | 15 | 299 | 0.0 | 3.2 | 0.00 | 0.00 | 0.00 | 46 | 1014.7 |
| 20260503215517 | 15 | 300 | 0.0 | 3.2 | 0.00 | 0.00 | 0.00 | 46 | 1014.7 |